Weather History for Tampa, FL

Change the Weather History Date:

Tuesday, August 27, 2013

  Actual Average Record
Temperature  
Mean Temperature 83 °F 83 °F  
Max Temperature 91 °F 90 °F 95 °F (1947)
Min Temperature 75 °F 76 °F 67 °F (1921)
Degree Days  
Heating Degree Days 0 0  
Month to date heating degree days 0 0  
Since 1 June heating degree days 0 0  
Since 1 July heating degree days 0 0  
Cooling Degree Days 18 18  
Month to date cooling degree days 518 486  
Year to date cooling degree days 2565 2437  
Since 1 June cooling degree days 1590 1560  
Growing Degree Days 33 (Base 50)    
Moisture  
Dew Point 72 °F    
Average Humidity 69    
Maximum Humidity 94    
Minimum Humidity 44    
Precipitation  
Precipitation T in 0.24 in 2.90 in (1949)
Month to date precipitation 11.45 6.78  
Year to date precipitation 42.06 32.73  
Sea Level Pressure  
Sea Level Pressure 30.04 in    
Wind  
Wind Speed 5 mph (ENE)    
Max Wind Speed 13 mph    
Max Gust Speed 17 mph    
Visibility 9 miles    
Events      
T = Trace of Precipitation, MM = Missing Value Source: NWS Daily Summary

Daily Weather History Graph

Daily Weather History Graph

Search for Another Location

Airport:

Trip Planner

Search our weather history database for the weather conditions in past years. The results will help you decide how hot, cold, wet, or windy it might be!

Date:

Astronomy

Aug. 27, 2013 Rise Set
Actual Time 7:06 AM EDT 7:56 PM EDT
Civil Twilight 6:42 AM EDT 8:20 PM EDT
Nautical Twilight 6:14 AM EDT 8:48 PM EDT
Astronomical Twilight 5:45 AM EDT 9:17 PM EDT
Moon No Moon Rise 1:25 PM EDT (8/27)
Length of Visible Light 13h 37m
Length of Day
12h 49m
Waning Gibbous, 57% of the Moon is Illuminated
Aug 27
Waning Gibbous
Aug 28
Last Quarter
Sep 5
New
Sep 12
First Quarter
Sep 19
Full

Hourly Weather History & Observations

Time (EDT) Temp. Heat Index Dew Point Humidity Pressure Visibility Wind Dir Wind Speed Gust Speed Precip Events Conditions
12:53 AM 75.9 °F - 73.0 °F 91% 30.06 in 10.0 mi NE 4.6 mph - N/A   Scattered Clouds
1:53 AM 75.9 °F - 73.0 °F 91% 30.05 in 10.0 mi Calm Calm - N/A   Scattered Clouds
2:53 AM 75.9 °F - 73.0 °F 91% 30.04 in 10.0 mi Calm Calm - N/A   Partly Cloudy
3:53 AM 75.0 °F - 73.0 °F 94% 30.03 in 10.0 mi NE 4.6 mph - N/A   Partly Cloudy
4:53 AM 75.0 °F - 73.0 °F 94% 30.03 in 10.0 mi NNE 4.6 mph - N/A   Scattered Clouds
5:53 AM 75.0 °F - 72.0 °F 90% 30.04 in 10.0 mi NE 4.6 mph - N/A   Scattered Clouds
6:53 AM 75.0 °F - 73.0 °F 94% 30.04 in 9.0 mi NE 5.8 mph - N/A   Partly Cloudy
6:58 AM 75.2 °F - 73.4 °F 94% 30.04 in 3.0 mi NE 5.8 mph - N/A   Mostly Cloudy
7:01 AM 75.2 °F - 73.4 °F 94% 30.04 in 1.0 mi NNE 5.8 mph - N/A   Mostly Cloudy
7:38 AM 75.2 °F - 73.4 °F 94% 30.05 in 2.0 mi NE 5.8 mph - N/A   Overcast
7:46 AM 75.2 °F - 73.4 °F 94% 30.05 in 3.0 mi ENE 5.8 mph - N/A   Mostly Cloudy
7:53 AM 75.0 °F - 73.0 °F 94% 30.05 in 5.0 mi ENE 8.1 mph - N/A   Mostly Cloudy
8:28 AM 77.0 °F - 73.4 °F 89% 30.05 in 6.0 mi NE 6.9 mph - N/A   Scattered Clouds
8:53 AM 78.1 °F - 73.0 °F 84% 30.06 in 7.0 mi ENE 4.6 mph - N/A   Partly Cloudy
9:53 AM 82.0 °F 87.4 °F 73.0 °F 74% 30.06 in 10.0 mi East 5.8 mph - N/A   Partly Cloudy
10:53 AM 84.0 °F 89.6 °F 72.0 °F 67% 30.08 in 10.0 mi East 9.2 mph - N/A   Scattered Clouds
11:53 AM 86.0 °F 91.5 °F 71.1 °F 61% 30.06 in 10.0 mi Variable 6.9 mph - N/A   Scattered Clouds
12:53 PM 88.0 °F 92.9 °F 70.0 °F 55% 30.05 in 10.0 mi East 6.9 mph - N/A   Scattered Clouds
1:53 PM 89.1 °F 92.9 °F 68.0 °F 50% 30.03 in 10.0 mi ENE 8.1 mph - N/A   Scattered Clouds
2:53 PM 91.0 °F 94.3 °F 66.9 °F 45% 30.01 in 10.0 mi NE 8.1 mph - N/A   Scattered Clouds
3:53 PM 90.0 °F 92.8 °F 66.9 °F 46% 29.99 in 10.0 mi East 4.6 mph - N/A   Scattered Clouds
4:53 PM 91.0 °F 94.3 °F 66.9 °F 45% 29.99 in 10.0 mi Variable 6.9 mph - N/A   Mostly Cloudy
5:53 PM 89.1 °F 92.1 °F 66.9 °F 48% 30.00 in 10.0 mi NE 5.8 mph - N/A   Mostly Cloudy
6:53 PM 82.0 °F 87.9 °F 73.9 °F 76% 29.99 in 10.0 mi South 11.5 mph - 0.00 in   Mostly Cloudy
7:53 PM 81.0 °F 86.2 °F 73.9 °F 79% 30.01 in 10.0 mi SW 9.2 mph - N/A   Mostly Cloudy
8:53 PM 79.0 °F - 73.9 °F 84% 30.02 in 10.0 mi WSW 6.9 mph - N/A   Mostly Cloudy
9:53 PM 79.0 °F - 73.9 °F 84% 30.04 in 10.0 mi Calm Calm - N/A   Mostly Cloudy
10:53 PM 80.1 °F 84.5 °F 73.9 °F 81% 30.05 in 10.0 mi Calm Calm - N/A   Scattered Clouds
11:53 PM 80.1 °F 84.2 °F 73.0 °F 79% 30.05 in 10.0 mi Calm Calm - N/A   Scattered Clouds